owner,sensor,date,latitude,longitude,sea_water_turbidity,qcFlag 
NERRS,ioos:station:NOAA.NERRS:marcewq:1,2015-08-01T00:00:00Z,28.1323,-97.0344,193.0,1111122 
NERRS,ioos:station:NOAA.NERRS:marcewq:1,2015-08-01T14:30:00Z,28.1323,-97.0344,257.0,1111122 
NERRS,ioos:station:NOAA.NERRS:marcewq:1,2015-08-01T15:30:00Z,28.1323,-97.0344,226.0,1111122 
NERRS,ioos:station:NOAA.NERRS:marcewq:1,2015-08-01T17:30:00Z,28.1323,-97.0344,230.0,1111122 
NERRS,ioos:station:NOAA.NERRS:marcewq:1,2015-08-01T18:30:00Z,28.1323,-97.0344,235.0,1111122 
NERRS,ioos:station:NOAA.NERRS:marcewq:1,2015-08-01T19:30:00Z,28.1323,-97.0344,237.0,1111122 
NERRS,ioos:station:NOAA.NERRS:marcewq:1,2015-08-01T20:30:00Z,28.1323,-97.0344,226.0,1111122 
NERRS,ioos:station:NOAA.NERRS:marcewq:1,2015-08-01T21:30:00Z,28.1323,-97.0344,238.0,1111122 
NERRS,ioos:station:NOAA.NERRS:marcewq:1,2015-08-01T23:30:00Z,28.1323,-97.0344,154.0,1111122 
NERRS,ioos:station:NOAA.NERRS:marcewq:1,2015-08-02T00:30:00Z,28.1323,-97.0344,166.0,1111122 
NERRS,ioos:station:NOAA.NERRS:marcewq:1,2015-08-02T01:30:00Z,28.1323,-97.0344,111.0,1111122 
NERRS,ioos:station:NOAA.NERRS:marcewq:1,2015-08-02T02:30:00Z,28.1323,-97.0344,204.0,1111122 
NERRS,ioos:station:NOAA.NERRS:marcewq:1,2015-08-02T03:30:00Z,28.1323,-97.0344,171.0,1111122 
NERRS,ioos:station:NOAA.NERRS:marcewq:1,2015-08-02T04:30:00Z,28.1323,-97.0344,140.0,1111122 
NERRS,ioos:station:NOAA.NERRS:marcewq:1,2015-08-02T05:30:00Z,28.1323,-97.0344,176.0,1111122 
NERRS,ioos:station:NOAA.NERRS:marcewq:1,2015-08-02T08:30:00Z,28.1323,-97.0344,207.0,1111122 
NERRS,ioos:station:NOAA.NERRS:marcewq:1,2015-08-02T09:30:00Z,28.1323,-97.0344,220.0,1111122 
NERRS,ioos:station:NOAA.NERRS:marcewq:1,2015-08-02T10:30:00Z,28.1323,-97.0344,196.0,1111122 
NERRS,ioos:station:NOAA.NERRS:marcewq:1,2015-08-02T11:30:00Z,28.1323,-97.0344,166.0,1111122 
NERRS,ioos:station:NOAA.NERRS:marcewq:1,2015-08-02T12:30:00Z,28.1323,-97.0344,209.0,1111122 
NERRS,ioos:station:NOAA.NERRS:marcewq:1,2015-08-03T05:30:00Z,28.1323,-97.0344,218.0,1111122 
NERRS,ioos:station:NOAA.NERRS:marcewq:1,2015-08-03T06:30:00Z,28.1323,-97.0344,146.0,1111122 
NERRS,ioos:station:NOAA.NERRS:marcewq:1,2015-08-04T04:30:00Z,28.1323,-97.0344,67.0,1111122 
NERRS,ioos:station:NOAA.NERRS:marcewq:1,2015-08-04T06:30:00Z,28.1323,-97.0344,66.0,1111122 
NERRS,ioos:station:NOAA.NERRS:marcewq:1,2015-08-04T08:00:00Z,28.1323,-97.0344,72.0,1111122 
NERRS,ioos:station:NOAA.NERRS:marcewq:1,2015-08-04T08:30:00Z,28.1323,-97.0344,74.0,1111122 
NERRS,ioos:station:NOAA.NERRS:marcewq:1,2015-08-04T09:30:00Z,28.1323,-97.0344,98.0,1111122 
NERRS,ioos:station:NOAA.NERRS:marcewq:1,2015-08-04T10:30:00Z,28.1323,-97.0344,89.0,1111122 
NERRS,ioos:station:NOAA.NERRS:marcewq:1,2015-08-04T11:30:00Z,28.1323,-97.0344,108.0,1111122 
NERRS,ioos:station:NOAA.NERRS:marcewq:1,2015-08-04T12:30:00Z,28.1323,-97.0344,100.0,1111122 
NERRS,ioos:station:NOAA.NERRS:marcewq:1,2015-08-04T13:30:00Z,28.1323,-97.0344,114.0,1111122 
NERRS,ioos:station:NOAA.NERRS:marcewq:1,2015-08-04T14:30:00Z,28.1323,-97.0344,53.0,1111122 
NERRS,ioos:station:NOAA.NERRS:marcewq:1,2015-08-04T15:30:00Z,28.1323,-97.0344,55.0,1111122 
NERRS,ioos:station:NOAA.NERRS:marcewq:1,2015-08-04T20:30:00Z,28.1323,-97.0344,68.0,1111122 
NERRS,ioos:station:NOAA.NERRS:marcewq:1,2015-08-04T21:30:00Z,28.1323,-97.0344,67.0,1111122 
NERRS,ioos:station:NOAA.NERRS:marcewq:1,2015-08-04T23:30:00Z,28.1323,-97.0344,83.0,1111122 
NERRS,ioos:station:NOAA.NERRS:marcewq:1,2015-08-05T00:30:00Z,28.1323,-97.0344,68.0,1111122 
NERRS,ioos:station:NOAA.NERRS:marcewq:1,2015-08-05T01:30:00Z,28.1323,-97.0344,69.0,1111122 
NERRS,ioos:station:NOAA.NERRS:marcewq:1,2015-08-05T02:30:00Z,28.1323,-97.0344,67.0,1111122 
NERRS,ioos:station:NOAA.NERRS:marcewq:1,2015-08-05T03:30:00Z,28.1323,-97.0344,86.0,1111122 
NERRS,ioos:station:NOAA.NERRS:marcewq:1,2015-08-05T05:30:00Z,28.1323,-97.0344,68.0,1111122 
NERRS,ioos:station:NOAA.NERRS:marcewq:1,2015-08-05T06:30:00Z,28.1323,-97.0344,100.0,1111122 
NERRS,ioos:station:NOAA.NERRS:marcewq:1,2015-08-05T07:30:00Z,28.1323,-97.0344,85.0,1111122 
NERRS,ioos:station:NOAA.NERRS:marcewq:1,2015-08-05T08:30:00Z,28.1323,-97.0344,88.0,1111122 
NERRS,ioos:station:NOAA.NERRS:marcewq:1,2015-08-05T09:30:00Z,28.1323,-97.0344,87.0,1111122 
NERRS,ioos:station:NOAA.NERRS:marcewq:1,2015-08-05T10:30:00Z,28.1323,-97.0344,87.0,1111122 
NERRS,ioos:station:NOAA.NERRS:marcewq:1,2015-08-05T11:30:00Z,28.1323,-97.0344,93.0,1111122 
NERRS,ioos:station:NOAA.NERRS:marcewq:1,2015-08-05T13:00:00Z,28.1323,-97.0344,108.0,1111122 
NERRS,ioos:station:NOAA.NERRS:marcewq:1,2015-08-05T13:30:00Z,28.1323,-97.0344,113.0,1111122 
NERRS,ioos:station:NOAA.NERRS:marcewq:1,2015-08-05T14:30:00Z,28.1323,-97.0344,99.0,1111122 
NERRS,ioos:station:NOAA.NERRS:marcewq:1,2015-08-05T16:00:00Z,28.1323,-97.0344,108.0,1111122 
NERRS,ioos:station:NOAA.NERRS:marcewq:1,2015-08-05T16:30:00Z,28.1323,-97.0344,96.0,1111122 
NERRS,ioos:station:NOAA.NERRS:marcewq:1,2015-08-05T18:30:00Z,28.1323,-97.0344,97.0,1111122 
NERRS,ioos:station:NOAA.NERRS:marcewq:1,2015-08-05T19:30:00Z,28.1323,-97.0344,109.0,1111122 
NERRS,ioos:station:NOAA.NERRS:marcewq:1,2015-08-05T20:30:00Z,28.1323,-97.0344,98.0,1111122 
NERRS,ioos:station:NOAA.NERRS:marcewq:1,2015-08-05T21:30:00Z,28.1323,-97.0344,123.0,1111122 
NERRS,ioos:station:NOAA.NERRS:marcewq:1,2015-08-05T22:30:00Z,28.1323,-97.0344,120.0,1111122 
NERRS,ioos:station:NOAA.NERRS:marcewq:1,2015-08-05T23:30:00Z,28.1323,-97.0344,122.0,1111122 
NERRS,ioos:station:NOAA.NERRS:marcewq:1,2015-08-06T01:30:00Z,28.1323,-97.0344,125.0,1111122 
NERRS,ioos:station:NOAA.NERRS:marcewq:1,2015-08-06T02:30:00Z,28.1323,-97.0344,114.0,1111122 
NERRS,ioos:station:NOAA.NERRS:marcewq:1,2015-08-06T04:30:00Z,28.1323,-97.0344,124.0,1111122 
NERRS,ioos:station:NOAA.NERRS:marcewq:1,2015-08-06T05:30:00Z,28.1323,-97.0344,132.0,1111122 
NERRS,ioos:station:NOAA.NERRS:marcewq:1,2015-08-06T08:30:00Z,28.1323,-97.0344,145.0,1111122 
NERRS,ioos:station:NOAA.NERRS:marcewq:1,2015-08-06T09:30:00Z,28.1323,-97.0344,136.0,1111122 
NERRS,ioos:station:NOAA.NERRS:marcewq:1,2015-08-06T11:00:00Z,28.1323,-97.0344,136.0,1111122 
NERRS,ioos:station:NOAA.NERRS:marcewq:1,2015-08-06T12:30:00Z,28.1323,-97.0344,141.0,1111122 
NERRS,ioos:station:NOAA.NERRS:marcewq:1,2015-08-06T13:30:00Z,28.1323,-97.0344,144.0,1111122 
NERRS,ioos:station:NOAA.NERRS:marcewq:1,2015-08-06T14:30:00Z,28.1323,-97.0344,130.0,1111122 
NERRS,ioos:station:NOAA.NERRS:marcewq:1,2015-08-06T15:30:00Z,28.1323,-97.0344,134.0,1111122 
NERRS,ioos:station:NOAA.NERRS:marcewq:1,2015-08-06T17:30:00Z,28.1323,-97.0344,44.0,1111122 
NERRS,ioos:station:NOAA.NERRS:marcewq:1,2015-08-06T18:30:00Z,28.1323,-97.0344,34.0,1111122 
NERRS,ioos:station:NOAA.NERRS:marcewq:1,2015-08-06T20:00:00Z,28.1323,-97.0344,38.0,1111122 
NERRS,ioos:station:NOAA.NERRS:marcewq:1,2015-08-06T21:00:00Z,28.1323,-97.0344,44.0,1111122 
NERRS,ioos:station:NOAA.NERRS:marcewq:1,2015-08-06T23:00:00Z,28.1323,-97.0344,51.0,1111122 
NERRS,ioos:station:NOAA.NERRS:marcewq:1,2015-08-06T23:30:00Z,28.1323,-97.0344,60.0,1111122 
NERRS,ioos:station:NOAA.NERRS:marcewq:1,2015-08-07T00:30:00Z,28.1323,-97.0344,60.0,1111122 
NERRS,ioos:station:NOAA.NERRS:marcewq:1,2015-08-07T06:30:00Z,28.1323,-97.0344,56.0,1111122 
NERRS,ioos:station:NOAA.NERRS:marcewq:1,2015-08-07T08:00:00Z,28.1323,-97.0344,35.0,1111122 
NERRS,ioos:station:NOAA.NERRS:marcewq:1,2015-08-07T08:30:00Z,28.1323,-97.0344,34.0,1111122 
NERRS,ioos:station:NOAA.NERRS:marcewq:1,2015-08-07T11:00:00Z,28.1323,-97.0344,39.0,1111122 
NERRS,ioos:station:NOAA.NERRS:marcewq:1,2015-08-07T11:30:00Z,28.1323,-97.0344,40.0,1111122 
NERRS,ioos:station:NOAA.NERRS:marcewq:1,2015-08-07T12:30:00Z,28.1323,-97.0344,35.0,1111122 
NERRS,ioos:station:NOAA.NERRS:marcewq:1,2015-08-07T13:30:00Z,28.1323,-97.0344,30.0,1111122 
NERRS,ioos:station:NOAA.NERRS:marcewq:1,2015-08-07T14:30:00Z,28.1323,-97.0344,29.0,1111122 
NERRS,ioos:station:NOAA.NERRS:marcewq:1,2015-08-07T15:30:00Z,28.1323,-97.0344,27.0,1111122 
NERRS,ioos:station:NOAA.NERRS:marcewq:1,2015-08-07T16:30:00Z,28.1323,-97.0344,26.0,1111122 
NERRS,ioos:station:NOAA.NERRS:marcewq:1,2015-08-07T17:30:00Z,28.1323,-97.0344,24.0,1111122 
NERRS,ioos:station:NOAA.NERRS:marcewq:1,2015-08-07T18:30:00Z,28.1323,-97.0344,24.0,1111122 
NERRS,ioos:station:NOAA.NERRS:marcewq:1,2015-08-07T19:30:00Z,28.1323,-97.0344,24.0,1111122 
NERRS,ioos:station:NOAA.NERRS:marcewq:1,2015-08-07T20:30:00Z,28.1323,-97.0344,24.0,1111122 
NERRS,ioos:station:NOAA.NERRS:marcewq:1,2015-08-07T21:30:00Z,28.1323,-97.0344,37.0,1111122 
NERRS,ioos:station:NOAA.NERRS:marcewq:1,2015-08-07T22:30:00Z,28.1323,-97.0344,62.0,1111122 
NERRS,ioos:station:NOAA.NERRS:marcewq:1,2015-08-07T23:30:00Z,28.1323,-97.0344,57.0,1111122 
NERRS,ioos:station:NOAA.NERRS:marcewq:1,2015-08-08T00:30:00Z,28.1323,-97.0344,57.0,1111122 
NERRS,ioos:station:NOAA.NERRS:marcewq:1,2015-08-08T01:30:00Z,28.1323,-97.0344,70.0,1111122 
NERRS,ioos:station:NOAA.NERRS:marcewq:1,2015-08-08T02:30:00Z,28.1323,-97.0344,70.0,1111122 
NERRS,ioos:station:NOAA.NERRS:marcewq:1,2015-08-08T03:30:00Z,28.1323,-97.0344,49.0,1111122 
NERRS,ioos:station:NOAA.NERRS:marcewq:1,2015-08-08T04:30:00Z,28.1323,-97.0344,45.0,1111122 
NERRS,ioos:station:NOAA.NERRS:marcewq:1,2015-08-08T06:00:00Z,28.1323,-97.0344,48.0,1111122 
NERRS,ioos:station:NOAA.NERRS:marcewq:1,2015-08-08T06:30:00Z,28.1323,-97.0344,48.0,1111122 
NERRS,ioos:station:NOAA.NERRS:marcewq:1,2015-08-08T07:30:00Z,28.1323,-97.0344,47.0,1111122 
NERRS,ioos:station:NOAA.NERRS:marcewq:1,2015-08-08T08:30:00Z,28.1323,-97.0344,52.0,1111122 
NERRS,ioos:station:NOAA.NERRS:marcewq:1,2015-08-08T09:30:00Z,28.1323,-97.0344,48.0,1111122 
NERRS,ioos:station:NOAA.NERRS:marcewq:1,2015-08-08T10:30:00Z,28.1323,-97.0344,40.0,1111122 
NERRS,ioos:station:NOAA.NERRS:marcewq:1,2015-08-08T11:30:00Z,28.1323,-97.0344,34.0,1111122 
NERRS,ioos:station:NOAA.NERRS:marcewq:1,2015-08-08T12:30:00Z,28.1323,-97.0344,32.0,1111122 
NERRS,ioos:station:NOAA.NERRS:marcewq:1,2015-08-08T13:30:00Z,28.1323,-97.0344,28.0,1111122 
NERRS,ioos:station:NOAA.NERRS:marcewq:1,2015-08-08T14:30:00Z,28.1323,-97.0344,36.0,1111122 
NERRS,ioos:station:NOAA.NERRS:marcewq:1,2015-08-08T15:30:00Z,28.1323,-97.0344,28.0,1111122 
NERRS,ioos:station:NOAA.NERRS:marcewq:1,2015-08-08T16:30:00Z,28.1323,-97.0344,26.0,1111122 
NERRS,ioos:station:NOAA.NERRS:marcewq:1,2015-08-08T17:30:00Z,28.1323,-97.0344,26.0,1111122 
NERRS,ioos:station:NOAA.NERRS:marcewq:1,2015-08-08T18:30:00Z,28.1323,-97.0344,25.0,1111122 
NERRS,ioos:station:NOAA.NERRS:marcewq:1,2015-08-08T19:30:00Z,28.1323,-97.0344,26.0,1111122 
NERRS,ioos:station:NOAA.NERRS:marcewq:1,2015-08-08T20:30:00Z,28.1323,-97.0344,28.0,1111122 
NERRS,ioos:station:NOAA.NERRS:marcewq:1,2015-08-08T21:30:00Z,28.1323,-97.0344,32.0,1111122 
NERRS,ioos:station:NOAA.NERRS:marcewq:1,2015-08-08T22:30:00Z,28.1323,-97.0344,31.0,1111122 
NERRS,ioos:station:NOAA.NERRS:marcewq:1,2015-08-08T23:30:00Z,28.1323,-97.0344,36.0,1111122 
NERRS,ioos:station:NOAA.NERRS:marcewq:1,2015-08-09T00:30:00Z,28.1323,-97.0344,46.0,1111122 
NERRS,ioos:station:NOAA.NERRS:marcewq:1,2015-08-09T01:30:00Z,28.1323,-97.0344,68.0,1111122 
NERRS,ioos:station:NOAA.NERRS:marcewq:1,2015-08-09T05:30:00Z,28.1323,-97.0344,70.0,1111122 
NERRS,ioos:station:NOAA.NERRS:marcewq:1,2015-08-09T06:30:00Z,28.1323,-97.0344,73.0,1111122 
NERRS,ioos:station:NOAA.NERRS:marcewq:1,2015-08-09T07:30:00Z,28.1323,-97.0344,47.0,1111122 
NERRS,ioos:station:NOAA.NERRS:marcewq:1,2015-08-09T08:30:00Z,28.1323,-97.0344,41.0,1111122 
NERRS,ioos:station:NOAA.NERRS:marcewq:1,2015-08-09T09:30:00Z,28.1323,-97.0344,38.0,1111122 
NERRS,ioos:station:NOAA.NERRS:marcewq:1,2015-08-09T10:30:00Z,28.1323,-97.0344,38.0,1111122 
NERRS,ioos:station:NOAA.NERRS:marcewq:1,2015-08-09T11:30:00Z,28.1323,-97.0344,43.0,1111122 
NERRS,ioos:station:NOAA.NERRS:marcewq:1,2015-08-09T13:30:00Z,28.1323,-97.0344,27.0,1111122 
NERRS,ioos:station:NOAA.NERRS:marcewq:1,2015-08-09T14:30:00Z,28.1323,-97.0344,25.0,1111122 
NERRS,ioos:station:NOAA.NERRS:marcewq:1,2015-08-09T15:30:00Z,28.1323,-97.0344,24.0,1111122 
NERRS,ioos:station:NOAA.NERRS:marcewq:1,2015-08-09T16:30:00Z,28.1323,-97.0344,25.0,1111122 
NERRS,ioos:station:NOAA.NERRS:marcewq:1,2015-08-09T17:30:00Z,28.1323,-97.0344,25.0,1111122 
NERRS,ioos:station:NOAA.NERRS:marcewq:1,2015-08-09T18:30:00Z,28.1323,-97.0344,22.0,1111122 
NERRS,ioos:station:NOAA.NERRS:marcewq:1,2015-08-09T19:30:00Z,28.1323,-97.0344,21.0,1111122 
NERRS,ioos:station:NOAA.NERRS:marcewq:1,2015-08-09T20:30:00Z,28.1323,-97.0344,21.0,1111122 
NERRS,ioos:station:NOAA.NERRS:marcewq:1,2015-08-09T21:30:00Z,28.1323,-97.0344,21.0,1111122 
NERRS,ioos:station:NOAA.NERRS:marcewq:1,2015-08-09T22:30:00Z,28.1323,-97.0344,23.0,1111122 
NERRS,ioos:station:NOAA.NERRS:marcewq:1,2015-08-09T23:30:00Z,28.1323,-97.0344,29.0,1111122 
NERRS,ioos:station:NOAA.NERRS:marcewq:1,2015-08-10T00:30:00Z,28.1323,-97.0344,27.0,1111122 
NERRS,ioos:station:NOAA.NERRS:marcewq:1,2015-08-10T01:30:00Z,28.1323,-97.0344,32.0,1111122 
NERRS,ioos:station:NOAA.NERRS:marcewq:1,2015-08-10T03:30:00Z,28.1323,-97.0344,35.0,1111122 
NERRS,ioos:station:NOAA.NERRS:marcewq:1,2015-08-10T04:30:00Z,28.1323,-97.0344,35.0,1111122 
NERRS,ioos:station:NOAA.NERRS:marcewq:1,2015-08-10T05:30:00Z,28.1323,-97.0344,70.0,1111122 
NERRS,ioos:station:NOAA.NERRS:marcewq:1,2015-08-10T06:30:00Z,28.1323,-97.0344,34.0,1111122 
NERRS,ioos:station:NOAA.NERRS:marcewq:1,2015-08-10T07:30:00Z,28.1323,-97.0344,30.0,1111122 
NERRS,ioos:station:NOAA.NERRS:marcewq:1,2015-08-10T08:30:00Z,28.1323,-97.0344,31.0,1111122 
NERRS,ioos:station:NOAA.NERRS:marcewq:1,2015-08-10T15:30:00Z,28.1323,-97.0344,21.0,1111122 
NERRS,ioos:station:NOAA.NERRS:marcewq:1,2015-08-10T16:30:00Z,28.1323,-97.0344,23.0,1111122 
NERRS,ioos:station:NOAA.NERRS:marcewq:1,2015-08-10T17:30:00Z,28.1323,-97.0344,19.0,1111122 
NERRS,ioos:station:NOAA.NERRS:marcewq:1,2015-08-10T18:30:00Z,28.1323,-97.0344,20.0,1111122 
NERRS,ioos:station:NOAA.NERRS:marcewq:1,2015-08-10T19:30:00Z,28.1323,-97.0344,20.0,1111122 
NERRS,ioos:station:NOAA.NERRS:marcewq:1,2015-08-10T20:30:00Z,28.1323,-97.0344,17.0,1111122 
NERRS,ioos:station:NOAA.NERRS:marcewq:1,2015-08-10T21:30:00Z,28.1323,-97.0344,24.0,1111122 
NERRS,ioos:station:NOAA.NERRS:marcewq:1,2015-08-10T23:00:00Z,28.1323,-97.0344,18.0,1111122 
NERRS,ioos:station:NOAA.NERRS:marcewq:1,2015-08-10T23:30:00Z,28.1323,-97.0344,18.0,1111122 
NERRS,ioos:station:NOAA.NERRS:marcewq:1,2015-08-11T09:30:00Z,28.1323,-97.0344,25.0,1111122 
NERRS,ioos:station:NOAA.NERRS:marcewq:1,2015-08-11T10:30:00Z,28.1323,-97.0344,27.0,1111122 
NERRS,ioos:station:NOAA.NERRS:marcewq:1,2015-08-11T12:30:00Z,28.1323,-97.0344,37.0,1111122 
NERRS,ioos:station:NOAA.NERRS:marcewq:1,2015-08-11T14:30:00Z,28.1323,-97.0344,19.0,1111122 
NERRS,ioos:station:NOAA.NERRS:marcewq:1,2015-08-11T15:30:00Z,28.1323,-97.0344,22.0,1111122 
NERRS,ioos:station:NOAA.NERRS:marcewq:1,2015-08-11T17:00:00Z,28.1323,-97.0344,23.0,1111122 
NERRS,ioos:station:NOAA.NERRS:marcewq:1,2015-08-11T17:30:00Z,28.1323,-97.0344,31.0,1111122 
NERRS,ioos:station:NOAA.NERRS:marcewq:1,2015-08-11T18:30:00Z,28.1323,-97.0344,21.0,1111122 
NERRS,ioos:station:NOAA.NERRS:marcewq:1,2015-08-11T19:30:00Z,28.1323,-97.0344,22.0,1111122 
NERRS,ioos:station:NOAA.NERRS:marcewq:1,2015-08-11T20:30:00Z,28.1323,-97.0344,25.0,1111122 
NERRS,ioos:station:NOAA.NERRS:marcewq:1,2015-08-11T21:30:00Z,28.1323,-97.0344,17.0,1111122 
NERRS,ioos:station:NOAA.NERRS:marcewq:1,2015-08-11T23:30:00Z,28.1323,-97.0344,21.0,1111122 
NERRS,ioos:station:NOAA.NERRS:marcewq:1,2015-08-12T00:30:00Z,28.1323,-97.0344,14.0,1111122 
NERRS,ioos:station:NOAA.NERRS:marcewq:1,2015-08-12T12:30:00Z,28.1323,-97.0344,17.0,1111122 
NERRS,ioos:station:NOAA.NERRS:marcewq:1,2015-08-12T13:30:00Z,28.1323,-97.0344,12.0,1111122 
NERRS,ioos:station:NOAA.NERRS:marcewq:1,2015-08-12T14:30:00Z,28.1323,-97.0344,27.0,1111122 
NERRS,ioos:station:NOAA.NERRS:marcewq:1,2015-08-12T15:30:00Z,28.1323,-97.0344,12.0,1111122 
NERRS,ioos:station:NOAA.NERRS:marcewq:1,2015-08-12T16:30:00Z,28.1323,-97.0344,14.0,1111122 
NERRS,ioos:station:NOAA.NERRS:marcewq:1,2015-08-12T17:30:00Z,28.1323,-97.0344,20.0,1111122 
NERRS,ioos:station:NOAA.NERRS:marcewq:1,2015-08-12T18:30:00Z,28.1323,-97.0344,24.0,1111122 
NERRS,ioos:station:NOAA.NERRS:marcewq:1,2015-08-12T19:30:00Z,28.1323,-97.0344,27.0,1111122 
NERRS,ioos:station:NOAA.NERRS:marcewq:1,2015-08-12T20:30:00Z,28.1323,-97.0344,17.0,1111122 
NERRS,ioos:station:NOAA.NERRS:marcewq:1,2015-08-12T22:00:00Z,28.1323,-97.0344,13.0,1111122 
NERRS,ioos:station:NOAA.NERRS:marcewq:1,2015-08-12T23:30:00Z,28.1323,-97.0344,13.0,1111122 
NERRS,ioos:station:NOAA.NERRS:marcewq:1,2015-08-13T00:30:00Z,28.1323,-97.0344,10.0,1111122 
NERRS,ioos:station:NOAA.NERRS:marcewq:1,2015-08-13T08:00:00Z,28.1323,-97.0344,13.0,1111122 
NERRS,ioos:station:NOAA.NERRS:marcewq:1,2015-08-13T08:30:00Z,28.1323,-97.0344,13.0,1111122 
NERRS,ioos:station:NOAA.NERRS:marcewq:1,2015-08-13T09:30:00Z,28.1323,-97.0344,13.0,1111122 
NERRS,ioos:station:NOAA.NERRS:marcewq:1,2015-08-13T10:30:00Z,28.1323,-97.0344,13.0,1111122 
NERRS,ioos:station:NOAA.NERRS:marcewq:1,2015-08-13T11:30:00Z,28.1323,-97.0344,12.0,1111122 
NERRS,ioos:station:NOAA.NERRS:marcewq:1,2015-08-13T12:30:00Z,28.1323,-97.0344,15.0,1111122 
NERRS,ioos:station:NOAA.NERRS:marcewq:1,2015-08-13T13:30:00Z,28.1323,-97.0344,12.0,1111122 
NERRS,ioos:station:NOAA.NERRS:marcewq:1,2015-08-13T14:30:00Z,28.1323,-97.0344,11.0,1111122 
NERRS,ioos:station:NOAA.NERRS:marcewq:1,2015-08-13T15:30:00Z,28.1323,-97.0344,12.0,1111122 
NERRS,ioos:station:NOAA.NERRS:marcewq:1,2015-08-13T16:30:00Z,28.1323,-97.0344,15.0,1111122 
NERRS,ioos:station:NOAA.NERRS:marcewq:1,2015-08-13T17:30:00Z,28.1323,-97.0344,16.0,1111122 
NERRS,ioos:station:NOAA.NERRS:marcewq:1,2015-08-13T18:30:00Z,28.1323,-97.0344,18.0,1111122 
NERRS,ioos:station:NOAA.NERRS:marcewq:1,2015-08-13T19:30:00Z,28.1323,-97.0344,38.0,1111122 
NERRS,ioos:station:NOAA.NERRS:marcewq:1,2015-08-13T20:30:00Z,28.1323,-97.0344,13.0,1111122 
NERRS,ioos:station:NOAA.NERRS:marcewq:1,2015-08-13T21:30:00Z,28.1323,-97.0344,12.0,1111122 
NERRS,ioos:station:NOAA.NERRS:marcewq:1,2015-08-13T22:30:00Z,28.1323,-97.0344,14.0,1111122 
NERRS,ioos:station:NOAA.NERRS:marcewq:1,2015-08-13T23:30:00Z,28.1323,-97.0344,9.0,1111122 
NERRS,ioos:station:NOAA.NERRS:marcewq:1,2015-08-14T00:30:00Z,28.1323,-97.0344,8.0,1111122 
NERRS,ioos:station:NOAA.NERRS:marcewq:1,2015-08-14T08:30:00Z,28.1323,-97.0344,15.0,1111122 
NERRS,ioos:station:NOAA.NERRS:marcewq:1,2015-08-14T09:30:00Z,28.1323,-97.0344,14.0,1111122 
NERRS,ioos:station:NOAA.NERRS:marcewq:1,2015-08-14T10:30:00Z,28.1323,-97.0344,12.0,1111122 
NERRS,ioos:station:NOAA.NERRS:marcewq:1,2015-08-14T11:30:00Z,28.1323,-97.0344,12.0,1111122 
NERRS,ioos:station:NOAA.NERRS:marcewq:1,2015-08-14T12:30:00Z,28.1323,-97.0344,12.0,1111122 
NERRS,ioos:station:NOAA.NERRS:marcewq:1,2015-08-14T13:30:00Z,28.1323,-97.0344,12.0,1111122 
NERRS,ioos:station:NOAA.NERRS:marcewq:1,2015-08-14T14:30:00Z,28.1323,-97.0344,12.0,1111122 
NERRS,ioos:station:NOAA.NERRS:marcewq:1,2015-08-14T15:30:00Z,28.1323,-97.0344,22.0,1111122 
NERRS,ioos:station:NOAA.NERRS:marcewq:1,2015-08-14T16:30:00Z,28.1323,-97.0344,8.0,1111122 
NERRS,ioos:station:NOAA.NERRS:marcewq:1,2015-08-14T17:30:00Z,28.1323,-97.0344,9.0,1111122 
NERRS,ioos:station:NOAA.NERRS:marcewq:1,2015-08-14T18:30:00Z,28.1323,-97.0344,9.0,1111122 
NERRS,ioos:station:NOAA.NERRS:marcewq:1,2015-08-14T19:30:00Z,28.1323,-97.0344,17.0,1111122 
NERRS,ioos:station:NOAA.NERRS:marcewq:1,2015-08-14T20:30:00Z,28.1323,-97.0344,11.0,1111122 
NERRS,ioos:station:NOAA.NERRS:marcewq:1,2015-08-14T21:30:00Z,28.1323,-97.0344,11.0,1111122 
NERRS,ioos:station:NOAA.NERRS:marcewq:1,2015-08-14T22:30:00Z,28.1323,-97.0344,9.0,1111122 
NERRS,ioos:station:NOAA.NERRS:marcewq:1,2015-08-15T01:30:00Z,28.1323,-97.0344,7.0,1111122 
NERRS,ioos:station:NOAA.NERRS:marcewq:1,2015-08-15T02:30:00Z,28.1323,-97.0344,8.0,1111122 
NERRS,ioos:station:NOAA.NERRS:marcewq:1,2015-08-15T06:30:00Z,28.1323,-97.0344,12.0,1111122 
NERRS,ioos:station:NOAA.NERRS:marcewq:1,2015-08-15T08:00:00Z,28.1323,-97.0344,11.0,1111122 
NERRS,ioos:station:NOAA.NERRS:marcewq:1,2015-08-15T08:30:00Z,28.1323,-97.0344,11.0,1111122 
NERRS,ioos:station:NOAA.NERRS:marcewq:1,2015-08-15T09:30:00Z,28.1323,-97.0344,10.0,1111122 
NERRS,ioos:station:NOAA.NERRS:marcewq:1,2015-08-15T10:30:00Z,28.1323,-97.0344,10.0,1111122 
NERRS,ioos:station:NOAA.NERRS:marcewq:1,2015-08-15T11:30:00Z,28.1323,-97.0344,9.0,1111122 
NERRS,ioos:station:NOAA.NERRS:marcewq:1,2015-08-15T12:30:00Z,28.1323,-97.0344,10.0,1111122 
NERRS,ioos:station:NOAA.NERRS:marcewq:1,2015-08-15T13:30:00Z,28.1323,-97.0344,17.0,1111122 
NERRS,ioos:station:NOAA.NERRS:marcewq:1,2015-08-15T14:30:00Z,28.1323,-97.0344,23.0,1111122 
NERRS,ioos:station:NOAA.NERRS:marcewq:1,2015-08-15T15:30:00Z,28.1323,-97.0344,8.0,1111122 
NERRS,ioos:station:NOAA.NERRS:marcewq:1,2015-08-15T16:30:00Z,28.1323,-97.0344,9.0,1111122 
NERRS,ioos:station:NOAA.NERRS:marcewq:1,2015-08-15T17:30:00Z,28.1323,-97.0344,9.0,1111122 
NERRS,ioos:station:NOAA.NERRS:marcewq:1,2015-08-15T18:30:00Z,28.1323,-97.0344,9.0,1111122 
NERRS,ioos:station:NOAA.NERRS:marcewq:1,2015-08-15T19:30:00Z,28.1323,-97.0344,9.0,1111122 
NERRS,ioos:station:NOAA.NERRS:marcewq:1,2015-08-15T21:30:00Z,28.1323,-97.0344,11.0,1111122 
NERRS,ioos:station:NOAA.NERRS:marcewq:1,2015-08-15T22:30:00Z,28.1323,-97.0344,8.0,1111122 
NERRS,ioos:station:NOAA.NERRS:marcewq:1,2015-08-15T23:30:00Z,28.1323,-97.0344,6.0,1111122 
NERRS,ioos:station:NOAA.NERRS:marcewq:1,2015-08-16T00:30:00Z,28.1323,-97.0344,8.0,1111122 
NERRS,ioos:station:NOAA.NERRS:marcewq:1,2015-08-16T01:30:00Z,28.1323,-97.0344,6.0,1111122 
NERRS,ioos:station:NOAA.NERRS:marcewq:1,2015-08-16T02:30:00Z,28.1323,-97.0344,6.0,1111122 
NERRS,ioos:station:NOAA.NERRS:marcewq:1,2015-08-16T03:30:00Z,28.1323,-97.0344,6.0,1111122 
NERRS,ioos:station:NOAA.NERRS:marcewq:1,2015-08-16T04:30:00Z,28.1323,-97.0344,7.0,1111122 
NERRS,ioos:station:NOAA.NERRS:marcewq:1,2015-08-16T05:30:00Z,28.1323,-97.0344,7.0,1111122 
NERRS,ioos:station:NOAA.NERRS:marcewq:1,2015-08-16T06:30:00Z,28.1323,-97.0344,8.0,1111122 
NERRS,ioos:station:NOAA.NERRS:marcewq:1,2015-08-16T08:00:00Z,28.1323,-97.0344,10.0,1111122 
NERRS,ioos:station:NOAA.NERRS:marcewq:1,2015-08-16T08:30:00Z,28.1323,-97.0344,9.0,1111122 
NERRS,ioos:station:NOAA.NERRS:marcewq:1,2015-08-16T09:30:00Z,28.1323,-97.0344,7.0,1111122 
NERRS,ioos:station:NOAA.NERRS:marcewq:1,2015-08-16T10:30:00Z,28.1323,-97.0344,7.0,1111122 
NERRS,ioos:station:NOAA.NERRS:marcewq:1,2015-08-16T11:30:00Z,28.1323,-97.0344,7.0,1111122 
NERRS,ioos:station:NOAA.NERRS:marcewq:1,2015-08-16T12:30:00Z,28.1323,-97.0344,18.0,1111122 
NERRS,ioos:station:NOAA.NERRS:marcewq:1,2015-08-16T14:30:00Z,28.1323,-97.0344,6.0,1111122 
NERRS,ioos:station:NOAA.NERRS:marcewq:1,2015-08-16T15:30:00Z,28.1323,-97.0344,6.0,1111122 
NERRS,ioos:station:NOAA.NERRS:marcewq:1,2015-08-16T16:30:00Z,28.1323,-97.0344,6.0,1111122 
NERRS,ioos:station:NOAA.NERRS:marcewq:1,2015-08-16T17:30:00Z,28.1323,-97.0344,10.0,1111122 
NERRS,ioos:station:NOAA.NERRS:marcewq:1,2015-08-16T18:30:00Z,28.1323,-97.0344,10.0,1111122 
NERRS,ioos:station:NOAA.NERRS:marcewq:1,2015-08-16T19:30:00Z,28.1323,-97.0344,8.0,1111122 
NERRS,ioos:station:NOAA.NERRS:marcewq:1,2015-08-16T20:30:00Z,28.1323,-97.0344,7.0,1111122 
NERRS,ioos:station:NOAA.NERRS:marcewq:1,2015-08-16T21:30:00Z,28.1323,-97.0344,6.0,1111122 
NERRS,ioos:station:NOAA.NERRS:marcewq:1,2015-08-16T22:30:00Z,28.1323,-97.0344,5.0,1111122 
NERRS,ioos:station:NOAA.NERRS:marcewq:1,2015-08-16T23:30:00Z,28.1323,-97.0344,7.0,1111122 
NERRS,ioos:station:NOAA.NERRS:marcewq:1,2015-08-17T00:30:00Z,28.1323,-97.0344,8.0,1111122 
NERRS,ioos:station:NOAA.NERRS:marcewq:1,2015-08-17T01:30:00Z,28.1323,-97.0344,8.0,1111122 
NERRS,ioos:station:NOAA.NERRS:marcewq:1,2015-08-17T02:30:00Z,28.1323,-97.0344,7.0,1111122 
NERRS,ioos:station:NOAA.NERRS:marcewq:1,2015-08-17T03:30:00Z,28.1323,-97.0344,7.0,1111122 
NERRS,ioos:station:NOAA.NERRS:marcewq:1,2015-08-17T04:30:00Z,28.1323,-97.0344,10.0,1111122 
NERRS,ioos:station:NOAA.NERRS:marcewq:1,2015-08-17T05:30:00Z,28.1323,-97.0344,7.0,1111122 